CSN6959 ZSSS-ZSAM

Flight info

Callsign CSN6959
Flight time 1h 21m
Altitude 25600
Route NXD71D NXD W131 AKDIM A470 ENVEN ENVEN8X
Aircraft A320/L-SDE3FGHIRWY/LB1

Departure

Time 2026-04-30 10:09
Airport Shanghai Hongqiao International Airport (ZSSS)

Arrival

Time 2026-04-30 11:30
Airport Xiamen Gaoqi International Airport (ZSAM)
Time Latitude Longitude Altitude Speed Heading
2026-04-30 09:36 31.19915 121.32844 19 ft 0 kts 257°
2026-04-30 09:59 31.19915 121.32843 19 ft 0 kts 257°
2026-04-30 10:00 31.19920 121.32869 19 ft 2 kts 257°
2026-04-30 10:00 31.19924 121.32888 19 ft 2 kts 257°
2026-04-30 10:01 31.19927 121.32906 21 ft 0 kts 257°
2026-04-30 10:01 31.19927 121.32905 21 ft 0 kts 257°
2026-04-30 10:01 31.19929 121.32917 19 ft 2 kts 257°
2026-04-30 10:02 31.19940 121.32954 19 ft 2 kts 230°
2026-04-30 10:02 31.19946 121.32961 22 ft 0 kts 191°
2026-04-30 10:04 31.19891 121.32966 19 ft 19 kts 175°
2026-04-30 10:04 31.19755 121.32974 19 ft 20 kts 178°
2026-04-30 10:05 31.19619 121.32983 19 ft 20 kts 177°
2026-04-30 10:05 31.19480 121.32990 19 ft 20 kts 177°
2026-04-30 10:05 31.19335 121.32998 19 ft 22 kts 177°
2026-04-30 10:05 31.19180 121.33006 19 ft 23 kts 178°
2026-04-30 10:06 31.19014 121.33014 19 ft 25 kts 176°
2026-04-30 10:06 31.18846 121.33025 19 ft 24 kts 178°
2026-04-30 10:06 31.18676 121.33033 19 ft 25 kts 177°
2026-04-30 10:06 31.18498 121.33043 19 ft 24 kts 177°
2026-04-30 10:07 31.18363 121.33053 19 ft 16 kts 163°
2026-04-30 10:07 31.18340 121.33155 19 ft 13 kts 86°
2026-04-30 10:07 31.18344 121.33256 19 ft 12 kts 88°
2026-04-30 10:07 31.18385 121.33321 19 ft 9 kts 20°
2026-04-30 10:08 31.18438 121.33321 20 ft 6 kts 356°
2026-04-30 10:08 31.18596 121.33311 21 ft 61 kts 357°
2026-04-30 10:08 31.19328 121.33269 19 ft 145 kts 357°
2026-04-30 10:08 31.20498 121.33210 389 ft 181 kts 356°
2026-04-30 10:09 31.21823 121.33173 1093 ft 201 kts 357°
2026-04-30 10:09 31.23286 121.33086 1703 ft 217 kts 355°
2026-04-30 10:09 31.24804 121.32952 2387 ft 226 kts 355°
2026-04-30 10:09 31.26369 121.32813 3133 ft 223 kts 353°
2026-04-30 10:10 31.27807 121.32206 3900 ft 225 kts 319°
2026-04-30 10:10 31.28602 121.30642 4666 ft 232 kts 285°
2026-04-30 10:10 31.28888 121.28776 4895 ft 232 kts 281°
2026-04-30 10:10 31.29148 121.26917 4974 ft 231 kts 281°
2026-04-30 10:11 31.29309 121.25045 5071 ft 236 kts 263°
2026-04-30 10:11 31.28639 121.23288 5879 ft 242 kts 237°
2026-04-30 10:11 31.27602 121.21716 6695 ft 250 kts 236°
2026-04-30 10:11 31.26456 121.20056 7121 ft 272 kts 236°
2026-04-30 10:12 31.25324 121.18258 7890 ft 277 kts 239°
2026-04-30 10:12 31.24223 121.16405 8837 ft 278 kts 240°
2026-04-30 10:12 31.23106 121.14595 9776 ft 281 kts 234°
2026-04-30 10:12 31.21612 121.13075 10622 ft 292 kts 217°
2026-04-30 10:13 31.19712 121.12135 11435 ft 304 kts 199°
2026-04-30 10:13 31.17557 121.11932 12148 ft 321 kts 184°
2026-04-30 10:13 31.15242 121.12044 12360 ft 345 kts 183°
2026-04-30 10:13 31.12786 121.11935 12541 ft 361 kts 195°
2026-04-30 10:14 31.10374 121.11114 12947 ft 361 kts 210°
2026-04-30 10:14 31.08240 121.09620 13555 ft 355 kts 225°
2026-04-30 10:14 31.05299 121.05194 14718 ft 342 kts 251°
2026-04-30 10:15 31.04563 121.02615 15291 ft 339 kts 258°
2026-04-30 10:15 31.03911 120.99968 15917 ft 339 kts 258°
2026-04-30 10:15 31.03255 120.97320 16605 ft 340 kts 258°
2026-04-30 10:15 31.02597 120.94667 17313 ft 342 kts 259°
2026-04-30 10:16 31.01936 120.92001 18034 ft 343 kts 259°
2026-04-30 10:16 31.01275 120.89331 18710 ft 343 kts 259°
2026-04-30 10:16 31.00611 120.86660 19346 ft 344 kts 259°
2026-04-30 10:17 30.99278 120.81283 20277 ft 345 kts 259°
2026-04-30 10:17 30.97944 120.75939 21470 ft 346 kts 258°
2026-04-30 10:17 30.97270 120.73243 22043 ft 347 kts 258°
2026-04-30 10:18 30.96595 120.70546 22595 ft 348 kts 258°
2026-04-30 10:18 30.95916 120.67837 23128 ft 348 kts 258°
2026-04-30 10:18 30.95237 120.65127 23642 ft 349 kts 258°
2026-04-30 10:19 30.93869 120.59678 24466 ft 351 kts 258°
2026-04-30 10:19 30.93180 120.56942 24863 ft 352 kts 258°
2026-04-30 10:19 30.92497 120.54236 25238 ft 354 kts 258°
2026-04-30 10:19 30.91803 120.51483 25589 ft 355 kts 258°
2026-04-30 10:20 30.91110 120.48724 25683 ft 357 kts 258°
2026-04-30 10:20 30.89028 120.43361 25704 ft 376 kts 241°
2026-04-30 10:20 30.87240 120.41078 25657 ft 389 kts 230°
2026-04-30 10:21 30.85040 120.39173 25714 ft 398 kts 226°
2026-04-30 10:21 30.82771 120.37309 25704 ft 399 kts 226°
2026-04-30 10:21 30.80500 120.35443 25708 ft 399 kts 226°
2026-04-30 10:21 30.78232 120.33579 25707 ft 399 kts 226°
2026-04-30 10:22 30.75992 120.31738 25703 ft 400 kts 226°
2026-04-30 10:22 30.73722 120.29876 25708 ft 400 kts 226°
2026-04-30 10:22 30.71451 120.28012 25713 ft 400 kts 226°
2026-04-30 10:22 30.69181 120.26148 25705 ft 400 kts 226°
2026-04-30 10:23 30.66913 120.24286 25649 ft 399 kts 226°
2026-04-30 10:23 30.64646 120.22427 25685 ft 399 kts 226°
2026-04-30 10:23 30.62380 120.20569 25697 ft 399 kts 226°
2026-04-30 10:23 30.60113 120.18711 25703 ft 399 kts 225°
2026-04-30 10:24 30.57843 120.16857 25702 ft 399 kts 225°
2026-04-30 10:24 30.55608 120.15033 25704 ft 398 kts 225°
2026-04-30 10:24 30.53345 120.13181 25707 ft 398 kts 226°
2026-04-30 10:24 30.51085 120.11333 25714 ft 397 kts 226°
2026-04-30 10:25 30.48826 120.09484 25702 ft 398 kts 226°
2026-04-30 10:25 30.46562 120.07631 25646 ft 399 kts 226°
2026-04-30 10:25 30.44285 120.05769 25697 ft 402 kts 225°
2026-04-30 10:25 30.41872 120.04043 25704 ft 410 kts 221°
2026-04-30 10:26 30.39397 120.02396 25709 ft 411 kts 220°
2026-04-30 10:26 30.36920 120.00755 25711 ft 410 kts 220°
2026-04-30 10:26 30.34439 119.99110 25711 ft 410 kts 220°
2026-04-30 10:26 30.31968 119.97469 25711 ft 410 kts 221°
2026-04-30 10:27 30.29533 119.95849 25716 ft 409 kts 221°
2026-04-30 10:27 30.27062 119.94207 25716 ft 409 kts 221°
2026-04-30 10:27 30.24597 119.92568 25712 ft 409 kts 221°
2026-04-30 10:27 30.22128 119.90923 25711 ft 409 kts 220°
2026-04-30 10:28 30.19664 119.89282 25709 ft 408 kts 221°
2026-04-30 10:28 30.17203 119.87647 25707 ft 408 kts 221°
2026-04-30 10:28 30.14742 119.86012 25703 ft 408 kts 221°
2026-04-30 10:28 30.12282 119.84379 25702 ft 408 kts 221°
2026-04-30 10:29 30.09852 119.82765 25703 ft 408 kts 221°
2026-04-30 10:29 30.07385 119.81129 25699 ft 409 kts 221°
2026-04-30 10:29 30.04915 119.79495 25644 ft 410 kts 220°
2026-04-30 10:29 30.02428 119.77842 25708 ft 415 kts 220°
2026-04-30 10:30 29.99928 119.76164 25715 ft 417 kts 220°
2026-04-30 10:30 29.97427 119.74479 25721 ft 416 kts 221°
2026-04-30 10:30 29.94924 119.72792 25718 ft 416 kts 221°
2026-04-30 10:30 29.92425 119.71108 25704 ft 416 kts 220°
2026-04-30 10:31 29.89923 119.69425 25712 ft 417 kts 220°
2026-04-30 10:31 29.87349 119.67847 25696 ft 426 kts 214°
2026-04-30 10:31 29.84497 119.66748 25705 ft 441 kts 204°
2026-04-30 10:31 29.81453 119.66243 25677 ft 456 kts 194°
2026-04-30 10:32 29.78276 119.66087 25683 ft 456 kts 193°
2026-04-30 10:32 29.75105 119.65934 25688 ft 456 kts 193°
2026-04-30 10:32 29.71940 119.65750 25693 ft 456 kts 194°
2026-04-30 10:32 29.68776 119.65530 25698 ft 455 kts 194°
2026-04-30 10:33 29.65616 119.65295 25704 ft 455 kts 195°
2026-04-30 10:33 29.62455 119.65058 25705 ft 455 kts 194°
2026-04-30 10:33 29.59281 119.64877 25704 ft 457 kts 193°
2026-04-30 10:33 29.56097 119.64772 25695 ft 458 kts 192°
2026-04-30 10:34 29.52946 119.64699 25700 ft 459 kts 192°
2026-04-30 10:34 29.49762 119.64582 25703 ft 457 kts 193°
2026-04-30 10:34 29.46589 119.64420 25708 ft 457 kts 194°
2026-04-30 10:34 29.43423 119.64223 25698 ft 455 kts 194°
2026-04-30 10:35 29.40261 119.64006 25702 ft 455 kts 194°
2026-04-30 10:35 29.37104 119.63787 25703 ft 455 kts 194°
2026-04-30 10:35 29.33944 119.63576 25708 ft 455 kts 194°
2026-04-30 10:35 29.30778 119.63373 25704 ft 456 kts 194°
2026-04-30 10:36 29.27602 119.63178 25716 ft 458 kts 194°
2026-04-30 10:36 29.24423 119.62988 25714 ft 457 kts 194°
2026-04-30 10:36 29.21248 119.62800 25713 ft 457 kts 193°
2026-04-30 10:36 29.18113 119.62613 25720 ft 457 kts 193°
2026-04-30 10:37 29.14935 119.62420 25724 ft 457 kts 194°
2026-04-30 10:37 29.11760 119.62225 25725 ft 457 kts 194°
2026-04-30 10:37 29.08598 119.62030 25683 ft 457 kts 193°
2026-04-30 10:37 29.05413 119.61832 25688 ft 457 kts 193°
2026-04-30 10:38 29.02240 119.61635 25693 ft 457 kts 193°
2026-04-30 10:38 28.99060 119.61437 25697 ft 458 kts 193°
2026-04-30 10:38 28.95876 119.61235 25701 ft 458 kts 193°
2026-04-30 10:38 28.92687 119.61035 25708 ft 459 kts 193°
2026-04-30 10:39 28.89494 119.60838 25707 ft 460 kts 193°
2026-04-30 10:39 28.86344 119.60645 25707 ft 459 kts 193°
2026-04-30 10:39 28.83152 119.60449 25677 ft 460 kts 193°
2026-04-30 10:39 28.79944 119.60247 25725 ft 463 kts 193°
2026-04-30 10:40 28.76727 119.60044 25725 ft 464 kts 193°
2026-04-30 10:40 28.73506 119.59845 25731 ft 463 kts 193°
2026-04-30 10:40 28.70286 119.59648 25739 ft 464 kts 193°
2026-04-30 10:40 28.67062 119.59451 25733 ft 464 kts 193°
2026-04-30 10:41 28.63841 119.59251 25735 ft 464 kts 193°
2026-04-30 10:41 28.60617 119.59052 25734 ft 464 kts 193°
2026-04-30 10:41 28.57444 119.58855 25691 ft 464 kts 193°
2026-04-30 10:41 28.54218 119.58656 25697 ft 464 kts 193°
2026-04-30 10:42 28.50996 119.58458 25701 ft 464 kts 193°
2026-04-30 10:42 28.47775 119.58261 25706 ft 464 kts 193°
2026-04-30 10:42 28.44551 119.58066 25719 ft 465 kts 193°
2026-04-30 10:42 28.41319 119.57878 25719 ft 465 kts 193°
2026-04-30 10:43 28.38094 119.57699 25718 ft 464 kts 193°
2026-04-30 10:43 28.34866 119.57527 25722 ft 465 kts 193°
2026-04-30 10:43 28.31676 119.57356 25703 ft 465 kts 192°
2026-04-30 10:43 28.28440 119.57184 25704 ft 465 kts 192°
2026-04-30 10:44 28.25218 119.57010 25709 ft 464 kts 192°
2026-04-30 10:44 28.21991 119.56833 25715 ft 465 kts 192°
2026-04-30 10:44 28.18762 119.56654 25721 ft 465 kts 192°
2026-04-30 10:44 28.15528 119.56472 25719 ft 465 kts 192°
2026-04-30 10:45 28.12299 119.56289 25721 ft 464 kts 192°
2026-04-30 10:45 28.09069 119.56113 25723 ft 465 kts 192°
2026-04-30 10:45 28.05872 119.56001 25692 ft 467 kts 190°
2026-04-30 10:45 28.02617 119.55946 25698 ft 469 kts 189°
2026-04-30 10:46 27.99356 119.55923 25705 ft 469 kts 189°
2026-04-30 10:46 27.96091 119.55911 25708 ft 469 kts 189°
2026-04-30 10:46 27.92824 119.55896 25712 ft 469 kts 189°
2026-04-30 10:46 27.89559 119.55872 25719 ft 470 kts 189°
2026-04-30 10:47 27.86286 119.55851 25720 ft 471 kts 189°
2026-04-30 10:47 27.83014 119.55832 25713 ft 469 kts 189°
2026-04-30 10:47 27.79791 119.55816 25720 ft 470 kts 189°
2026-04-30 10:47 27.76521 119.55799 25715 ft 470 kts 189°
2026-04-30 10:48 27.73255 119.55778 25716 ft 470 kts 189°
2026-04-30 10:48 27.69990 119.55757 25714 ft 469 kts 189°
2026-04-30 10:48 27.66728 119.55739 25718 ft 469 kts 189°
2026-04-30 10:48 27.64561 119.55728 25721 ft 470 kts 189°
2026-04-30 10:49 27.61292 119.55712 25722 ft 470 kts 189°
2026-04-30 10:49 27.58021 119.55694 25724 ft 470 kts 189°
2026-04-30 10:49 27.53646 119.55666 25700 ft 469 kts 189°
2026-04-30 10:49 27.51485 119.55652 25703 ft 470 kts 189°
2026-04-30 10:50 27.47148 119.55626 25704 ft 471 kts 189°
2026-04-30 10:50 27.43869 119.55611 25704 ft 471 kts 189°
2026-04-30 10:50 27.40590 119.55598 25706 ft 471 kts 189°
2026-04-30 10:50 27.37305 119.55591 25707 ft 472 kts 189°
2026-04-30 10:51 27.34026 119.55588 25711 ft 472 kts 188°
2026-04-30 10:51 27.30738 119.55584 25712 ft 472 kts 189°
2026-04-30 10:51 27.27454 119.55581 25691 ft 471 kts 188°
2026-04-30 10:51 27.25288 119.55580 25697 ft 470 kts 188°
2026-04-30 10:52 27.20960 119.55567 25694 ft 469 kts 188°
2026-04-30 10:52 27.17694 119.55546 25704 ft 469 kts 189°
2026-04-30 10:52 27.14431 119.55521 25711 ft 469 kts 189°
2026-04-30 10:52 27.11169 119.55493 25712 ft 469 kts 189°
2026-04-30 10:53 27.09011 119.55475 25708 ft 469 kts 189°
2026-04-30 10:53 27.05751 119.55450 25716 ft 469 kts 189°
2026-04-30 10:53 27.02486 119.55428 25696 ft 469 kts 188°
2026-04-30 10:53 26.99227 119.55410 25712 ft 469 kts 188°
2026-04-30 10:54 26.94908 119.55390 25719 ft 468 kts 188°
2026-04-30 10:54 26.92702 119.55378 25726 ft 469 kts 188°
2026-04-30 10:54 26.89444 119.55357 25728 ft 468 kts 188°
2026-04-30 10:54 26.86185 119.55331 25728 ft 468 kts 188°
2026-04-30 10:55 26.82976 119.55305 25729 ft 468 kts 188°
2026-04-30 10:55 26.79718 119.55282 25723 ft 468 kts 188°
2026-04-30 10:55 26.76462 119.55261 25701 ft 468 kts 187°
2026-04-30 10:55 26.73212 119.55242 25710 ft 467 kts 188°
2026-04-30 10:56 26.69965 119.55223 25724 ft 466 kts 188°
2026-04-30 10:56 26.66717 119.55203 25729 ft 466 kts 188°
2026-04-30 10:56 26.63475 119.55183 25732 ft 466 kts 188°
2026-04-30 10:56 26.60244 119.55164 25732 ft 465 kts 187°
2026-04-30 10:57 26.57010 119.55145 25736 ft 465 kts 188°
2026-04-30 10:57 26.53818 119.55122 25735 ft 465 kts 188°
2026-04-30 10:57 26.50583 119.55097 25710 ft 465 kts 187°
2026-04-30 10:57 26.47342 119.55073 25715 ft 465 kts 187°
2026-04-30 10:58 26.44112 119.55050 25723 ft 465 kts 187°
2026-04-30 10:58 26.40874 119.55031 25726 ft 465 kts 187°
2026-04-30 10:58 26.37643 119.55013 25725 ft 465 kts 187°
2026-04-30 10:58 26.33363 119.54975 25729 ft 464 kts 187°
2026-04-30 10:59 26.31181 119.54951 25730 ft 464 kts 187°
2026-04-30 10:59 26.27951 119.54910 25727 ft 464 kts 187°
2026-04-30 10:59 26.24766 119.54867 25725 ft 463 kts 188°
2026-04-30 10:59 26.21594 119.54517 25707 ft 455 kts 197°
2026-04-30 11:00 26.18552 119.53666 25719 ft 448 kts 204°
2026-04-30 11:00 26.15577 119.52639 25720 ft 448 kts 204°
2026-04-30 11:00 26.12599 119.51616 25719 ft 448 kts 204°
2026-04-30 11:00 26.09619 119.50596 25720 ft 448 kts 204°
2026-04-30 11:01 26.06639 119.49580 25719 ft 448 kts 204°
2026-04-30 11:01 26.03652 119.48566 25724 ft 449 kts 204°
2026-04-30 11:01 26.00667 119.47554 25710 ft 449 kts 204°
2026-04-30 11:01 25.97720 119.46558 25684 ft 449 kts 203°
2026-04-30 11:02 25.94736 119.45546 25685 ft 449 kts 203°
2026-04-30 11:02 25.91753 119.44533 25687 ft 448 kts 203°
2026-04-30 11:02 25.88772 119.43519 25687 ft 448 kts 203°
2026-04-30 11:02 25.85787 119.42502 25693 ft 449 kts 203°
2026-04-30 11:03 25.82800 119.41485 25704 ft 449 kts 203°
2026-04-30 11:03 25.79812 119.40469 25700 ft 450 kts 203°
2026-04-30 11:03 25.76869 119.39346 25700 ft 444 kts 209°
2026-04-30 11:04 25.71786 119.35780 25687 ft 431 kts 226°
2026-04-30 11:04 25.69690 119.33436 25689 ft 428 kts 231°
2026-04-30 11:04 25.67652 119.31030 25691 ft 428 kts 231°
2026-04-30 11:04 25.65609 119.28628 25693 ft 428 kts 231°
2026-04-30 11:05 25.63563 119.26224 25696 ft 429 kts 231°
2026-04-30 11:05 25.61515 119.23819 25706 ft 429 kts 231°
2026-04-30 11:05 25.59471 119.21420 25694 ft 428 kts 231°
2026-04-30 11:05 25.57422 119.19022 25701 ft 429 kts 231°
2026-04-30 11:06 25.55373 119.16624 25711 ft 429 kts 231°
2026-04-30 11:06 25.53321 119.14225 25696 ft 429 kts 231°
2026-04-30 11:06 25.51297 119.11858 25676 ft 429 kts 231°
2026-04-30 11:06 25.49243 119.09454 25682 ft 429 kts 231°
2026-04-30 11:07 25.47191 119.07055 25686 ft 430 kts 231°
2026-04-30 11:07 25.45135 119.04650 25691 ft 430 kts 231°
2026-04-30 11:07 25.43082 119.02247 25685 ft 430 kts 231°
2026-04-30 11:07 25.41027 118.99840 25689 ft 430 kts 231°
2026-04-30 11:08 25.38972 118.97439 25691 ft 430 kts 231°
2026-04-30 11:08 25.36911 118.95036 25695 ft 431 kts 231°
2026-04-30 11:08 25.34873 118.92663 25690 ft 431 kts 230°
2026-04-30 11:08 25.32814 118.90256 25690 ft 431 kts 231°
2026-04-30 11:09 25.30784 118.87829 25694 ft 430 kts 231°
2026-04-30 11:09 25.28774 118.85386 25693 ft 429 kts 232°
2026-04-30 11:09 25.26772 118.82941 25682 ft 429 kts 232°
2026-04-30 11:09 25.24769 118.80497 25681 ft 429 kts 232°
2026-04-30 11:10 25.22762 118.78050 25685 ft 430 kts 232°
2026-04-30 11:10 25.20750 118.75605 25688 ft 431 kts 232°
2026-04-30 11:10 25.18732 118.73162 25681 ft 430 kts 231°
2026-04-30 11:10 25.16711 118.70725 25684 ft 430 kts 231°
2026-04-30 11:11 25.14716 118.68322 25682 ft 430 kts 232°
2026-04-30 11:11 25.12699 118.65892 25685 ft 430 kts 232°
2026-04-30 11:11 25.10676 118.63455 25690 ft 430 kts 232°
2026-04-30 11:11 25.08652 118.61017 25668 ft 431 kts 231°
2026-04-30 11:12 25.06600 118.58600 25662 ft 432 kts 230°
2026-04-30 11:12 25.04524 118.56208 25662 ft 432 kts 230°
2026-04-30 11:12 25.02431 118.53828 25658 ft 433 kts 230°
2026-04-30 11:12 25.00328 118.51446 25425 ft 434 kts 230°
2026-04-30 11:13 24.98224 118.49059 25126 ft 433 kts 230°
2026-04-30 11:13 24.96164 118.46717 24348 ft 431 kts 230°
2026-04-30 11:13 24.94110 118.44376 24065 ft 416 kts 230°
2026-04-30 11:13 24.92141 118.42131 23947 ft 399 kts 230°
2026-04-30 11:14 24.90253 118.39974 23827 ft 383 kts 230°
2026-04-30 11:14 24.88438 118.37895 23717 ft 369 kts 231°
2026-04-30 11:14 24.86694 118.35897 23597 ft 355 kts 231°
2026-04-30 11:14 24.85240 118.33804 23451 ft 335 kts 249°
2026-04-30 11:15 24.84710 118.31399 23331 ft 317 kts 271°
2026-04-30 11:15 24.85114 118.29115 23192 ft 305 kts 292°
2026-04-30 11:15 24.86264 118.27191 22999 ft 299 kts 306°
2026-04-30 11:15 24.87586 118.25435 22649 ft 296 kts 307°
2026-04-30 11:16 24.88753 118.23594 22281 ft 291 kts 295°
2026-04-30 11:16 24.89731 118.21522 21908 ft 288 kts 295°
2026-04-30 11:16 24.90642 118.19573 21601 ft 285 kts 295°
2026-04-30 11:16 24.91542 118.17634 21212 ft 283 kts 295°
2026-04-30 11:17 24.92329 118.15660 20870 ft 280 kts 284°
2026-04-30 11:17 24.92802 118.13616 20519 ft 279 kts 283°
2026-04-30 11:17 24.93274 118.11551 20195 ft 278 kts 283°
2026-04-30 11:17 24.93748 118.09494 19864 ft 276 kts 283°
2026-04-30 11:18 24.94200 118.07440 19525 ft 275 kts 278°
2026-04-30 11:18 24.94362 118.03241 18837 ft 274 kts 272°
2026-04-30 11:18 24.94197 118.01160 18537 ft 274 kts 253°
2026-04-30 11:19 24.93186 117.99387 18149 ft 280 kts 225°
2026-04-30 11:19 24.91462 117.98396 17778 ft 293 kts 195°
2026-04-30 11:19 24.89398 117.98361 17364 ft 301 kts 181°
2026-04-30 11:19 24.87304 117.98547 16999 ft 302 kts 180°
2026-04-30 11:20 24.85218 117.98758 16687 ft 301 kts 179°
2026-04-30 11:20 24.83137 117.98976 16393 ft 299 kts 179°
2026-04-30 11:20 24.81066 117.99190 16113 ft 298 kts 180°
2026-04-30 11:20 24.79009 117.99394 15835 ft 296 kts 180°
2026-04-30 11:21 24.76957 117.99591 15562 ft 295 kts 180°
2026-04-30 11:21 24.75151 117.99761 15316 ft 294 kts 180°
2026-04-30 11:21 24.73120 117.99951 15054 ft 293 kts 180°
2026-04-30 11:21 24.71096 118.00142 14779 ft 292 kts 179°
2026-04-30 11:22 24.69102 118.00331 14513 ft 290 kts 179°
2026-04-30 11:22 24.67093 118.00518 14240 ft 289 kts 179°
2026-04-30 11:22 24.65094 118.00706 13968 ft 288 kts 179°
2026-04-30 11:22 24.63104 118.00892 13692 ft 286 kts 179°
2026-04-30 11:23 24.61127 118.01075 13396 ft 284 kts 179°
2026-04-30 11:23 24.59158 118.01248 13098 ft 282 kts 182°
2026-04-30 11:23 24.55565 118.00128 12507 ft 266 kts 219°
2026-04-30 11:24 24.54232 117.98759 12189 ft 261 kts 231°
2026-04-30 11:24 24.53037 117.97293 11872 ft 261 kts 231°
2026-04-30 11:24 24.51824 117.95814 11564 ft 260 kts 230°
2026-04-30 11:25 24.49398 117.92869 10812 ft 264 kts 230°
2026-04-30 11:25 24.48147 117.91362 10138 ft 268 kts 227°
2026-04-30 11:25 24.44657 117.90364 8693 ft 282 kts 161°
2026-04-30 11:26 24.41593 117.92970 7233 ft 289 kts 118°
2026-04-30 11:26 24.41175 117.95099 6511 ft 289 kts 84°
2026-04-30 11:26 24.41866 117.97124 5755 ft 285 kts 50°
2026-04-30 11:27 24.43412 117.98400 5002 ft 277 kts 22°
2026-04-30 11:27 24.45115 117.99347 4266 ft 273 kts 37°
2026-04-30 11:27 24.46247 118.00989 3545 ft 270 kts 62°
2026-04-30 11:27 24.47205 118.02739 2845 ft 266 kts 53°
2026-04-30 11:28 24.49439 118.05814 1896 ft 239 kts 52°
2026-04-30 11:28 24.50421 118.07179 1316 ft 223 kts 53°
2026-04-30 11:28 24.51339 118.08463 793 ft 203 kts 53°
2026-04-30 11:29 24.52153 118.09601 539 ft 176 kts 53°
2026-04-30 11:29 24.52864 118.10593 326 ft 156 kts 54°
2026-04-30 11:29 24.54069 118.12281 44 ft 120 kts 52°
2026-04-30 11:30 24.54659 118.13117 44 ft 20 kts 61°
2026-04-30 11:30 24.54695 118.13224 45 ft 22 kts 74°
2026-04-30 11:30 24.54715 118.13345 46 ft 0 kts 82°
2026-04-30 11:33 24.54742 118.13500 45 ft 15 kts 73°
2026-04-30 11:33 24.54801 118.13598 43 ft 17 kts 52°
2026-04-30 11:33 24.54870 118.13698 45 ft 14 kts 66°
2026-04-30 11:33 24.54831 118.13772 45 ft 9 kts 139°
2026-04-30 11:34 24.54816 118.13813 45 ft 4 kts 40°
2026-04-30 11:34 24.54823 118.13805 45 ft 5 kts 297°
2026-04-30 11:34 24.54811 118.13794 45 ft 2 kts 161°
2026-04-30 11:34 24.54802 118.13798 45 ft 1 kts 161°
2026-04-30 11:35 24.54782 118.13813 45 ft 12 kts 142°
2026-04-30 11:35 24.54699 118.13887 45 ft 17 kts 141°
2026-04-30 11:35 24.54622 118.13979 45 ft 6 kts 133°
2026-04-30 11:35 24.54615 118.14035 45 ft 10 kts 66°
2026-04-30 11:36 24.54631 118.14060 44 ft 0 kts 51°
2026-04-30 11:36 24.54636 118.14066 44 ft 0 kts 51°